When you browse on this site, cookies collect data to enhance your experience and personalize the content and advertising you see.
Visit our Privacy Policy to learn more. By continuing to use the site, you agree to this use of cookies and data.
  • în România
  • Lista ţărilor
  • Pe 7 zile
  • Temperatura apei
  • Hartă satelitară
  • Meteo pe hartă
  • Widget-uri
  • user-avatar
    Intrare

    Meteo pe oră la Artashat

    Astăzi, 22 Martie, Vineri

    Timp Temperatura Precipitaţii Vânt Presiune Umiditate
    00:00 -2°C° 0 mm 2 m/s 600 mmHg 58%
    01:00 0°C° 0 mm 1 m/s 600 mmHg 59%
    02:00 -1°C° 0 mm 1 m/s 600 mmHg 59%
    03:00 -1°C° 0 mm 1 m/s 599 mmHg 60%
    04:00 -1°C° 0 mm 1 m/s 599 mmHg 62%
    05:00 -1°C° 0 mm 1 m/s 599 mmHg 63%
    06:00 -2°C° 0 mm 1 m/s 599 mmHg 64%
    07:00 -1°C° 0 mm 1 m/s 600 mmHg 62%
    08:00 0°C° 0 mm 1 m/s 600 mmHg 59%
    09:00 +2°C° 0 mm 1 m/s 600 mmHg 57%
    10:00 +2°C° 0 mm 1 m/s 600 mmHg 57%
    11:00 +3°C° 0 mm 1 m/s 600 mmHg 56%
    12:00 +4°C° 0 mm 1 m/s 600 mmHg 55%
    13:00 +4°C° 0 mm 1 m/s 600 mmHg 54%
    14:00 +5°C° 0 mm 1 m/s 600 mmHg 52%
    15:00 +5°C° 0 mm 1 m/s 599 mmHg 51%
    16:00 +3°C° 0 mm 2 m/s 599 mmHg 53%
    17:00 +2°C° 0 mm 2 m/s 599 mmHg 54%
    18:00 +2°C° 0 mm 2 m/s 599 mmHg 56%
    19:00 +1°C° 0 mm 2 m/s 599 mmHg 58%
    20:00 -1°C° 0 mm 2 m/s 599 mmHg 60%
    21:00 -2°C° 0 mm 2 m/s 599 mmHg 62%
    22:00 -2°C° 0 mm 2 m/s 599 mmHg 62%
    23:00 -3°C° 0 mm 2 m/s 599 mmHg 62%

    Mâine, 23 Martie, Sâmbătă

    Timp Temperatura Precipitaţii Vânt Presiune Umiditate
    00:00 -1°C° 0 mm 1 m/s 599 mmHg 62%
    01:00 -2°C° 0 mm 1 m/s 599 mmHg 61%
    02:00 -2°C° 0 mm 1 m/s 599 mmHg 61%
    03:00 -3°C° 0 mm 1 m/s 599 mmHg 60%
    04:00 -3°C° 0 mm 1 m/s 598 mmHg 60%
    05:00 -3°C° 0 mm 1 m/s 598 mmHg 60%
    06:00 -3°C° 0 mm 1 m/s 598 mmHg 60%
    07:00 -2°C° 0 mm 1 m/s 598 mmHg 56%
    08:00 -1°C° 0 mm 1 m/s 598 mmHg 53%
    09:00 0°C° 0 mm 1 m/s 598 mmHg 50%
    10:00 +1°C° 0 mm 1 m/s 598 mmHg 49%
    11:00 +1°C° 0 mm 2 m/s 598 mmHg 47%
    12:00 +3°C° 0 mm 2 m/s 598 mmHg 46%
    13:00 +3°C° 0 mm 2 m/s 598 mmHg 45%
    14:00 +4°C° 0 mm 2 m/s 597 mmHg 44%
    15:00 +4°C° 0 mm 2 m/s 597 mmHg 44%
    16:00 +3°C° 0 mm 2 m/s 597 mmHg 47%
    17:00 +3°C° 0 mm 2 m/s 596 mmHg 51%
    18:00 +2°C° 0 mm 2 m/s 596 mmHg 54%
    19:00 +2°C° 0 mm 2 m/s 596 mmHg 57%
    20:00 +1°C° 0 mm 2 m/s 596 mmHg 59%
    21:00 +1°C° 0 mm 2 m/s 596 mmHg 62%
    22:00 -1°C° 0.2 mm 2 m/s 596 mmHg 64%
    23:00 -1°C° 0.2 mm 2 m/s 596 mmHg 67%

    Poimâine, 24 Martie, Duminică

    Timp Temperatura Precipitaţii Vânt Presiune Umiditate
    00:00 -1°C° 0.2 mm 2 m/s 595 mmHg 70%
    01:00 -1°C° 0.5 mm 2 m/s 595 mmHg 72%
    02:00 +1°C° 0.5 mm 1 m/s 594 mmHg 74%
    03:00 0°C° 0.5 mm 1 m/s 594 mmHg 77%
    04:00 -2°C° 0.2 mm 2 m/s 593 mmHg 77%
    05:00 -2°C° 0.2 mm 2 m/s 593 mmHg 77%
    06:00 -3°C° 0.2 mm 2 m/s 593 mmHg 77%
    07:00 -2°C° 0 mm 3 m/s 593 mmHg 73%
    08:00 0°C° 0 mm 3 m/s 593 mmHg 68%
    09:00 0°C° 0 mm 4 m/s 593 mmHg 64%
    10:00 +1°C° 0.1 mm 4 m/s 593 mmHg 64%
    11:00 +2°C° 0.1 mm 5 m/s 593 mmHg 63%
    12:00 +3°C° 0.1 mm 5 m/s 593 mmHg 62%
    13:00 +5°C° 0.4 mm 5 m/s 593 mmHg 60%
    14:00 +5°C° 0.4 mm 5 m/s 593 mmHg 58%
    15:00 +6°C° 0.4 mm 5 m/s 593 mmHg 55%
    16:00 +5°C° 0.8 mm 4 m/s 593 mmHg 59%
    17:00 +4°C° 0.8 mm 3 m/s 593 mmHg 63%
    18:00 +3°C° 0.8 mm 3 m/s 593 mmHg 67%
    19:00 +2°C° 1.2 mm 3 m/s 593 mmHg 72%
    20:00 0°C° 1.2 mm 3 m/s 593 mmHg 78%
    21:00 -1°C° 1.2 mm 3 m/s 593 mmHg 84%
    22:00 -1°C° 0.6 mm 3 m/s 593 mmHg 83%
    23:00 -1°C° 0.6 mm 3 m/s 593 mmHg 82%

    25 Martie, Luni

    Timp Temperatura Precipitaţii Vânt Presiune Umiditate
    00:00 -1°C° 0.6 mm 2 m/s 593 mmHg 82%
    01:00 -1°C° 0.1 mm 2 m/s 593 mmHg 81%
    02:00 -2°C° 0.1 mm 2 m/s 593 mmHg 81%
    03:00 -2°C° 0.1 mm 2 m/s 593 mmHg 81%
    04:00 -2°C° 0.1 mm 2 m/s 593 mmHg 80%
    05:00 -2°C° 0.1 mm 2 m/s 593 mmHg 80%
    06:00 0°C° 0.1 mm 1 m/s 593 mmHg 80%
    07:00 -1°C° 0.1 mm 2 m/s 593 mmHg 77%
    08:00 +1°C° 0.1 mm 2 m/s 593 mmHg 74%
    09:00 +1°C° 0.1 mm 2 m/s 593 mmHg 71%
    10:00 +2°C° 0 mm 2 m/s 593 mmHg 68%
    11:00 +3°C° 0 mm 2 m/s 592 mmHg 64%
    12:00 +4°C° 0 mm 2 m/s 592 mmHg 61%
    13:00 +5°C° 0 mm 2 m/s 592 mmHg 59%
    14:00 +4°C° 0 mm 3 m/s 591 mmHg 58%
    15:00 +4°C° 0 mm 3 m/s 591 mmHg 56%
    16:00 +4°C° 0.2 mm 3 m/s 591 mmHg 58%
    17:00 +3°C° 0.2 mm 3 m/s 591 mmHg 60%
    18:00 +4°C° 0.2 mm 2 m/s 591 mmHg 63%
    19:00 +3°C° 0.7 mm 2 m/s 591 mmHg 67%
    20:00 +2°C° 0.7 mm 2 m/s 592 mmHg 72%
    21:00 +3°C° 0.7 mm 1 m/s 592 mmHg 76%
    22:00 +3°C° 0.7 mm 1 m/s 592 mmHg 79%
    23:00 +2°C° 0.7 mm 1 m/s 592 mmHg 81%

    26 Martie, Marţi

    Timp Temperatura Precipitaţii Vânt Presiune Umiditate
    00:00 +2°C° 0.7 mm 1 m/s 592 mmHg 83%
    01:00 +2°C° 0.5 mm 1 m/s 592 mmHg 84%
    02:00 +1°C° 0.5 mm 1 m/s 592 mmHg 84%
    03:00 +1°C° 0.5 mm 1 m/s 592 mmHg 85%
    04:00 +1°C° 0.4 mm 1 m/s 592 mmHg 85%
    05:00 +1°C° 0.4 mm 1 m/s 592 mmHg 85%
    06:00 0°C° 0.4 mm 1 m/s 593 mmHg 85%
    07:00 -1°C° 0.2 mm 2 m/s 593 mmHg 82%
    08:00 -1°C° 0.2 mm 2 m/s 593 mmHg 80%
    09:00 +1°C° 0.2 mm 2 m/s 593 mmHg 77%
    10:00 +2°C° 0 mm 2 m/s 593 mmHg 74%
    11:00 +2°C° 0 mm 2 m/s 593 mmHg 71%
    12:00 +4°C° 0 mm 1 m/s 593 mmHg 67%
    13:00 +5°C° 0 mm 1 m/s 593 mmHg 65%
    14:00 +5°C° 0 mm 1 m/s 593 mmHg 63%
    15:00 +6°C° 0 mm 1 m/s 593 mmHg 61%
    16:00 +4°C° 0 mm 2 m/s 593 mmHg 61%
    17:00 +3°C° 0 mm 3 m/s 593 mmHg 61%
    18:00 +2°C° 0 mm 3 m/s 593 mmHg 62%
    19:00 +2°C° 0 mm 3 m/s 594 mmHg 64%
    20:00 +1°C° 0 mm 3 m/s 594 mmHg 66%
    21:00 +2°C° 0 mm 2 m/s 595 mmHg 68%
    22:00 +1°C° 0 mm 2 m/s 595 mmHg 70%
    23:00 +1°C° 0 mm 2 m/s 595 mmHg 72%

    27 Martie, Miercuri

    Timp Temperatura Precipitaţii Vânt Presiune Umiditate
    00:00 -1°C° 0 mm 2 m/s 595 mmHg 73%
    01:00 -1°C° 0 mm 2 m/s 595 mmHg 73%
    02:00 -2°C° 0 mm 2 m/s 595 mmHg 74%
    03:00 0°C° 0 mm 1 m/s 596 mmHg 74%
    04:00 0°C° 0 mm 1 m/s 596 mmHg 75%
    05:00 0°C° 0 mm 1 m/s 596 mmHg 75%
    06:00 -1°C° 0 mm 1 m/s 597 mmHg 75%
    07:00 0°C° 0 mm 1 m/s 597 mmHg 72%
    08:00 +2°C° 0 mm 1 m/s 598 mmHg 68%
    09:00 +3°C° 0 mm 1 m/s 599 mmHg 64%
    10:00 +4°C° 0 mm 1 m/s 599 mmHg 62%
    11:00 +4°C° 0 mm 1 m/s 599 mmHg 60%
    12:00 +5°C° 0 mm 1 m/s 599 mmHg 58%
    13:00 +5°C° 0.1 mm 1 m/s 599 mmHg 58%
    14:00 +6°C° 0.1 mm 1 m/s 599 mmHg 57%
    15:00 +6°C° 0.1 mm 1 m/s 599 mmHg 57%
    16:00 +5°C° 0.1 mm 1 m/s 599 mmHg 58%
    17:00 +5°C° 0.1 mm 1 m/s 600 mmHg 58%
    18:00 +5°C° 0.1 mm 1 m/s 600 mmHg 59%
    19:00 +4°C° 0.1 mm 1 m/s 600 mmHg 61%
    20:00 +4°C° 0.1 mm 1 m/s 600 mmHg 63%
    21:00 +3°C° 0.1 mm 1 m/s 601 mmHg 65%
    22:00 +3°C° 0.1 mm 1 m/s 601 mmHg 67%
    23:00 +3°C° 0.1 mm 1 m/s 600 mmHg 68%
    Arată mai mult